Regional Weather Roundup
Issued by NWS

Home | Current Version | Previous Version | Text Only | Print | Product List | Glossary On
Versions: 1 2 3 4 5 6 7 8 9 10 11 12 13 14 15 16 17 18 19 20 21 22 23 24 25 26 27 28 29 30 31 32 33 34 35 36 37 38 39 40 41 42 43 44 45 46 47 48 49 50
000
ASUS43 KMKX 252200
RWRWI

WISCONSIN REGIONAL WEATHER ROUNDUP
NATIONAL WEATHER SERVICE MILWAUKEE/SULLIVAN WI
500 PM CDT MON JUL 25 2016

NOTE: "FAIR" INDICATES FEW OR NO CLOUDS BELOW 12,000 FEET WITH NO
SIGNIFICANT WEATHER AND/OR OBSTRUCTIONS TO VISIBILITY.

WIZ001-002-006>008-014>016-023>028-252300-
NORTHWEST WISCONSIN

CITY           SKY/WX    TMP DP  RH WIND       PRES   REMARKS
SUPERIOR ARPT  MOSUNNY   85  62  45 W10G18    29.97F HX  85
ASHLAND        SUNNY     84  59  42 NW12      29.99F HX  84
HAYWARD        PTSUNNY   82  60  47 VRB7      30.02F HX  82
SIREN          MOSUNNY   82  59  44 NW9       30.02F HX  82
CUMBERLAND     MOSUNNY   79  59  50 NW8       30.03F HX  80
RICE LAKE      MOSUNNY   81  60  48 NW8       30.04S HX  82
CHETEK         MOSUNNY   82  63  52 NW7       30.03S HX  83
LADYSMITH      MOSUNNY   81  61  51 NW7       30.04S HX  81
EAU CLAIRE     NOT AVBL
MENOMONIE      SUNNY     85  58  39 NW6       30.03S HX  85
NEW RICHMOND   SUNNY     84  59  43 NW9       30.04S HX  83
OSCEOLA        SUNNY     84  61  45 NW9       30.05F HX  84
$$

WIZ003>005-009-010-017-018-252300-
NORTH CENTRAL WISCONSIN

CITY           SKY/WX    TMP DP  RH WIND       PRES   REMARKS
MANITOWISH WTR SUNNY     79  58  48 NW8G17    30.02S HX  80
ARBOR VITAE    SUNNY     80  56  43 NW3       30.02S HX  80
WOODRUFF       SUNNY     80  56  43 NW3       30.02S HX  80
RHINELANDER    MOSUNNY   81  56  42 NW9       30.02S HX  81
EAGLE RIVER    SUNNY     79  53  39 NW8       30.01S
LAND O LAKES   SUNNY     80  53  38 NW8G16    30.02S HX  80
PHILLIPS       MOSUNNY   79  60  51 W7G16     30.02S HX  80
TOMAHAWK       SUNNY     79  57  46 W8        30.02F HX  80
MEDFORD        MOSUNNY   79  60  52 NW10G17   30.03S HX  80
MERRILL        SUNNY     81  60  48 NW8       30.02R HX  81
$$

WIZ029-030-035-036-043>047-252300-
CENTRAL WISCONSIN

CITY           SKY/WX    TMP DP  RH WIND       PRES   REMARKS
WAUSAU         MOSUNNY   82  58  43 W17G23    30.00R HX  82
MOSINEE        NOT AVBL
MARSHFIELD     SUNNY     82  59  45 NW12      30.02S HX  82
STEVENS POINT  SUNNY     80  58  46 NW12      30.01S HX  81
WAUPACA        MOSUNNY   85  58  39 W9        29.99S HX  85
WAUTOMA        SUNNY     83  61  47 NW8       30.00S HX  83
WISC RAPIDS    SUNNY     84  57  39 NW9       30.02S HX  83
CAMP DOUGLAS   NOT AVBL
$$

WIZ011>013-019>022-031-037>040-048>050-252300-
NORTHEAST WISCONSIN

CITY           SKY/WX    TMP DP  RH WIND       PRES   REMARKS
ANTIGO         MOSUNNY   80  59  49 NW10G18   30.02S HX  80
SHAWANO        MOSUNNY   85  59  41 NW7       29.97F HX  85
OCONTO         MOSUNNY   84  61  45 W7        29.95R HX  84
STURGEON BAY   SUNNY     84  61  45 NW9       29.96S HX  84
GREEN BAY      MOSUNNY   84  64  50 W12G17    29.97R HX  85
MANITOWOC      NOT AVBL
APPLETON       PTSUNNY   81  55  41 NW8       29.98R HX  80
CLINTONVILLE   MOSUNNY   82  55  39 NW10      29.98S HX  82
OSHKOSH        MOSUNNY   84  62  47 NW7       29.98S HX  85
$$

WIZ032>034-041-042-053>061-252300-
SOUTHWEST WISCONSIN

CITY           SKY/WX    TMP DP  RH WIND       PRES   REMARKS
LA CROSSE      SUNNY     85  62  46 NW12      30.01F HX  85
SPARTA         MOSUNNY   83  62  49 NW9       30.03S HX  84
VIROQUA        SUNNY     81  62  52 N7        30.05S HX  82
BOSCOBEL       MOSUNNY   87  64  46 VRB6      30.01F HX  88
PRAIRIE DU CHI MOSUNNY   82  59  44 N8        30.01F HX  82
PLATTEVILLE    MOSUNNY   82  64  54 NW7       30.03F HX  83
$$

WIZ056-057-062-063-064-067-068-252300-
SOUTH CENTRAL WISCONSIN

CITY           SKY/WX    TMP DP  RH WIND       PRES   REMARKS
REEDSBURG      MOSUNNY   80  63  57 NW8       30.01S HX  81
BARABOO/DELLS  SUNNY     81  60  48 NW6       30.02S HX  82
LONE ROCK      NOT AVBL
MINERAL POINT  SUNNY     82  59  44 NW8       30.03F HX  82
MADISON        PTSUNNY   85  63  47 NW6       30.00S HX  86
MIDDLETON      SUNNY     83  65  55 N5        30.01F HX  84
WATERTOWN      MOSUNNY   83  64  53 NW6       29.99F HX  84
MONROE         MOSUNNY   82  59  44 N9        30.01F HX  82
JANESVILLE     MOSUNNY   84  63  48 NW6       29.99F HX  85
$$

WIZ051-052-058>065-066-070>072-252300-
SOUTHEAST WISCONSIN

CITY           SKY/WX    TMP DP  RH WIND       PRES   REMARKS
MILWAUKEE      PTSUNNY   82  63  52 SE7       29.98S HX  83
WAUKESHA       MOSUNNY   82  61  47 NW14      30.01S HX  83
MILWAUKEE/TIMM MOSUNNY   84  55  37 NW12      29.99S HX  83
RACINE         MOSUNNY   83  64  52 SE7       30.00S HX  84
BURLINGTON     SUNNY     85  61  44 NW8       29.99S HX  85
KENOSHA        MOSUNNY   84  65  52 E9        29.99S HX  86
FOND DU LAC    MOSUNNY   85  62  46 NW15      29.99S HX  85
SHEBOYGAN      SUNNY     83  63  50 W6        29.98S HX  84
WEST BEND      MOSUNNY   82  59  44 NW10      29.99S HX  82
JUNEAU         SUNNY     82  63  53 NW5       30.01S HX  83
$$

LSZ147-162-252300-
LAKE SUPERIOR

STATION/POSITION TIME  TEMP    WIND        PRES    WAVE
                       AIR SEA DIR/SP/G            HT/PER
                 (UTC) (F)     (DEG/KT/KT) (MB)    (FT/S)
W MID LAKE BUOY  2050   64 60  230/ 12/ 12 1013.8F   2/ 4
DEVILS ISLAND    2100   72     230/ 13/ 15 1014.4F
SAXON HARBOR     2100   80      60/  3/  4 1015.2F
$$

LMZ867-665-643>646-252300-
LAKE MICHIGAN

STATION/POSITION TIME  TEMP    WIND        PRES    WAVE
                       AIR SEA DIR/SP/G            HT/PER
                 (UTC) (F)     (DEG/KT/KT) (MB)    (FT/S)
CHAMBERS ISLAND  2100   83     300/  4/  9 1013.5S
S GREEN BAY BUOY 2100   79 75  290/  8/ 10   N/A
N MID LAKE BUOY  2050   72 71  220/  6/  6 1012.8F   1/ 5
NORTHPORT PIER   2100   80     310/  5/  9 1013.5S
SISTER BAY       2106   79     340/  6/  6   N/A
ALGOMA LAKESHORE 2113          320/ 13/ 16   N/A
KEWAUNEE LAKESHO 2100   83     330/  8/ 12 1013.9F
SHEBOYGAN LAKESH 2100   82     280/ 10/ 12 1014.8F
PORT WASHINGTON  2140   88     320/  8/ 11 1015.6F
ATWATER BUOY     2100   67 56  180/  6/  8 1017.1R
MILWAUKEE LAKESH 2110   72     140/ 10/ 11   N/A
S MID LAKE BUOY  2050   76 76  190/  6/  6 1015.0F   1
KENOSHA   LAKESH 2100   75     170/  8/  9 1014.9F
$$

TC  - TEMPERATURE IN CELSIUS
VSB - VISIBILITY IN STATUTE MILES
WCI - WIND CHILL INDEX
HX  - HEAT INDEX





USA.gov is the U.S. government's official web portal to all federal, state and local government web resources and services.